Date,TemperatureHighF,TemperatureAvgF,TemperatureLowF,DewpointHighF,DewpointAvgF,DewpointLowF,HumidityHigh,HumidityAvg,HumidityLow,PressureMaxIn,PressureMinIn,WindSpeedMaxMPH,WindSpeedAvgMPH,GustSpeedMaxMPH,PrecipitationSumIn
2013-2-1,49.8,42.2,36.3,47.0,39.4,33.3,92,90,88,30.32,30.20,0,0,0,0.00
2013-2-2,44.1,39.8,36.1,41.9,37.4,33.2,92,91,89,30.29,30.22,0,0,0,0.00
2013-2-3,49.3,43.7,37.9,45.5,40.9,35.5,93,90,83,30.31,30.20,0,0,1,0.00
2013-2-4,52.5,45.9,41.7,46.9,42.3,39.3,91,87,79,30.20,29.91,3,0,3,0.00
2013-2-5,49.8,45.8,43.0,45.7,41.7,39.4,91,86,79,30.06,29.92,6,0,7,0.00
2013-2-6,52.2,45.9,42.1,42.9,40.7,37.5,89,82,69,30.10,29.83,5,0,8,0.00
2013-2-7,46.9,41.0,36.3,41.2,37.0,32.5,90,86,76,30.09,29.93,2,0,2,0.00
2013-2-8,45.5,38.8,36.0,39.1,34.8,32.6,90,85,77,30.25,30.09,0,0,0,0.00
2013-2-9,44.4,40.2,36.3,39.6,36.4,32.6,89,86,82,30.28,30.23,0,0,0,0.00
2013-2-10,44.8,42.3,40.8,40.9,38.7,37.4,91,87,82,30.31,30.26,0,0,0,0.00
2013-2-11,47.1,43.2,39.7,40.8,38.8,36.4,89,85,76,30.37,30.28,0,0,0,0.00
2013-2-12,52.9,47.0,43.3,48.5,43.8,40.5,92,88,83,30.46,30.37,4,0,4,0.00
2013-2-13,51.1,48.0,46.0,46.4,44.3,43.0,91,87,82,30.47,30.41,0,0,2,0.00
2013-2-14,58.6,48.1,40.6,48.5,42.6,36.1,91,81,67,30.53,30.42,0,0,0,0.00
2013-2-15,50.5,42.4,37.4,45.8,38.5,33.5,89,86,82,30.42,30.19,0,0,0,0.00
2013-2-16,48.9,41.4,33.4,46.5,38.0,29.9,93,88,84,30.27,30.20,5,0,5,0.00
2013-2-17,49.3,41.7,36.0,40.6,36.0,30.7,90,81,64,30.27,30.05,0,0,0,0.00
2013-2-18,47.3,39.5,32.7,37.7,33.4,28.9,88,79,66,30.05,29.72,3,0,3,0.00
2013-2-19,48.6,42.1,37.6,41.6,37.0,33.3,89,82,73,29.97,29.63,0,0,2,0.00
2013-2-20,48.7,41.7,37.2,40.9,36.5,32.4,89,82,68,30.10,29.97,0,0,3,0.00
2013-2-21,44.1,40.7,38.1,40.4,37.3,34.7,90,88,83,30.21,30.10,2,0,4,0.00
2013-2-22,44.1,42.1,38.5,40.8,38.8,34.3,90,88,81,30.19,29.93,8,0,10,0.00
2013-2-23,45.0,39.7,34.3,39.7,35.9,30.8,90,86,80,30.42,30.09,8,0,8,0.16
2013-2-24,54.1,42.0,33.6,43.0,36.1,30.4,91,80,61,30.42,30.08,0,0,0,0.04
2013-2-25,48.7,42.4,37.9,41.1,37.0,33.4,87,81,64,30.37,30.05,8,1,10,0.12
2013-2-26,51.8,41.8,34.0,40.8,35.6,30.4,89,79,61,30.37,30.21,8,0,8,0.02
2013-2-27,50.5,44.7,39.7,44.9,40.0,34.7,88,84,77,30.29,30.20,0,0,4,0.04
2013-2-28,55.9,50.8,46.2,52.4,47.7,42.9,92,89,85,30.44,30.19,6,0,6,0.16